Weather History for Laurinburg-Maxton, NC

Change the Weather History Date:

Thursday, March 14, 2013

  Actual Average (KLBT) Record (KLBT)
Temperature  
Mean Temperature 42 °F 54 °F  
Max Temperature 54 °F 66 °F 81 °F (2012)
Min Temperature 30 °F 42 °F 24 °F (2014)
Degree Days  
Heating Degree Days 23 12  
Month to date heating degree days 188  
Since 1 July heating degree days 2418  
Cooling Degree Days 0 0  
Month to date cooling degree days 0  
Year to date cooling degree days 3  
Moisture  
Dew Point 19 °F    
Average Humidity 42    
Maximum Humidity 73    
Minimum Humidity 24    
Precipitation  
Precipitation 0.00 in 0.10 in 0.25 in (1999)
Month to date precipitation 1.52  
Year to date precipitation 7.39  
Sea Level Pressure  
Sea Level Pressure 30.21 in    
Wind  
Wind Speed 8 mph (NW)    
Max Wind Speed 14 mph    
Max Gust Speed 26 mph    
Visibility 10 miles    
Events      
T = Trace of Precipitation, MM = Missing Value Source: NWS Daily Summary

Daily Weather History Graph

Daily Weather History Graph

Search for Another Location

Airport:

Trip Planner

Search our weather history database for the weather conditions in past years. The results will help you decide how hot, cold, wet, or windy it might be!

Date:

Astronomy

Mar. 14, 2013 Rise Set
Actual Time 7:29 AM EDT 7:24 PM EDT
Civil Twilight 7:03 AM EDT 7:49 PM EDT
Nautical Twilight 6:34 AM EDT 8:18 PM EDT
Astronomical Twilight 6:05 AM EDT 8:48 PM EDT
Moon 8:50 AM EDT (3/14) 10:29 PM EDT (3/14)
Length of Visible Light 12h 45m
Length of Day
11h 55m
Waxing Crescent, 9% of the Moon is Illuminated
Mar 14
Waxing Crescent
Mar 19
First Quarter
Mar 27
Full
Apr 3
Last Quarter
Apr 10
New

Hourly Weather History & Observations

Time (EDT) Temp. Windchill Dew Point Humidity Pressure Visibility Wind Dir Wind Speed Gust Speed Precip Events Conditions
12:52 AM 41.0 °F 34.3 °F 19.9 °F 43% 30.16 in 10.0 mi NNW 11.5 mph - N/A   Clear
1:52 AM 37.9 °F 30.5 °F 18.0 °F 45% 30.16 in 10.0 mi North 11.5 mph - N/A   Clear
2:52 AM 37.0 °F 29.8 °F 19.0 °F 48% 30.18 in 10.0 mi North 10.4 mph - N/A   Clear
3:52 AM 34.0 °F 28.0 °F 18.0 °F 52% 30.20 in 10.0 mi North 6.9 mph - N/A   Clear
4:52 AM 34.0 °F 27.2 °F 16.0 °F 48% 30.21 in 10.0 mi North 8.1 mph - N/A   Clear
5:52 AM 32.0 °F - 16.0 °F 52% 30.22 in 10.0 mi Calm Calm - N/A   Clear
6:52 AM 32.0 °F 25.6 °F 16.0 °F 52% 30.24 in 10.0 mi NNW 6.9 mph - N/A   Clear
7:52 AM 30.9 °F 26.2 °F 16.0 °F 54% 30.26 in 10.0 mi North 4.6 mph - N/A   Clear
8:52 AM 36.0 °F 29.6 °F 15.1 °F 43% 30.28 in 10.0 mi North 8.1 mph - N/A   Clear
9:52 AM 39.0 °F 32.8 °F 16.0 °F 39% 30.29 in 10.0 mi NNW 9.2 mph 23.0 mph N/A   Clear
10:52 AM 42.1 °F 34.9 °F 17.1 °F 37% 30.29 in 10.0 mi NNW 13.8 mph - N/A   Clear
11:52 AM 44.1 °F 41.5 °F 17.1 °F 34% 30.27 in 10.0 mi Variable 4.6 mph 19.6 mph N/A   Clear
12:52 PM 48.0 °F - 17.1 °F 29% 30.25 in 10.0 mi NNW 10.4 mph 26.5 mph N/A   Clear
1:52 PM 50.0 °F - 17.1 °F 27% 30.22 in 9.0 mi NNW 6.9 mph - N/A   Clear
2:52 PM 51.1 °F - 18.0 °F 27% 30.19 in 7.0 mi WNW 11.5 mph 18.4 mph N/A   Clear
3:52 PM 54.0 °F - 18.0 °F 24% 30.17 in 10.0 mi Variable 4.6 mph 16.1 mph N/A   Clear
4:52 PM 53.1 °F - 18.0 °F 25% 30.16 in 10.0 mi NW 10.4 mph - N/A   Clear
5:52 PM 53.1 °F - 18.0 °F 25% 30.15 in 10.0 mi WNW 10.4 mph - N/A   Clear
6:52 PM 50.0 °F - 17.1 °F 27% 30.16 in 10.0 mi WNW 10.4 mph - N/A   Clear
7:52 PM 46.0 °F 43.9 °F 19.9 °F 35% 30.17 in 10.0 mi West 4.6 mph - N/A   Clear
8:52 PM 43.0 °F 40.3 °F 24.1 °F 47% 30.17 in 10.0 mi West 4.6 mph - N/A   Clear
9:52 PM 41.0 °F 39.0 °F 23.0 °F 49% 30.17 in 10.0 mi WSW 3.5 mph - N/A   Clear
10:52 PM 37.0 °F 33.3 °F 28.0 °F 70% 30.18 in 10.0 mi WSW 4.6 mph - N/A   Clear
11:52 PM 36.0 °F - 28.0 °F 73% 30.18 in 10.0 mi Calm Calm - N/A   Clear